SITRO-AIS 5 (KATYS)

Last updated on Wed Oct 29 2025 00:03:53 GMT+0000 (Coordinated Universal Time)

1 57176U 23091L 25301.66544847 .00014628 00000+0 62458-3 0 9994 2 57176 97.5407 358.9718 0012922 191.6637 168.4302 15.22916725129028
UTC large
Height (km)
Speed (km/s)
/
Latitude / Longitude
Inclination (degrees)
Orbital Period (minutes)
Azimuth
Elevation
Range (km)
Doppler Factor

Next 0 passes for location: London (51.5072 / 0.1276)

Sorry there are no passes over London.